This demonstration page uses our WeatherBlox Daily Observations layout. Learn more.

Left ArrowRight Arrow

39.01783, -85.05884

Hourly Observations for March 13, 2015

Temp ( °F °C ) Dew Point ( °F °C ) Humidity (%) Winds ( mph kmh ) Pressure ( in mb ) Visibility ( mi km ) Precip ( " mm )
12:52 am 00:52 Cloudy 48 8.9 29 -1.7 48 48 E 8 13 30.32 1027 10 16 0.00 0.00
1:52 am 01:52 Mostly Cloudy 47 8.3 28 -2.2 48 48 E 6 9 30.30 1026 10 16 0.00 0.00
2:52 am 02:52 Partly Cloudy 46 7.8 27 -2.8 47 47 E 7 11 30.28 1026 10 16 0.00 0.00
3:52 am 03:52 Cloudy 47 8.3 28 -2.2 48 48 ENE 3 6 30.27 1025 10 16 0.00 0.00
4:52 am 04:52 Cloudy 48 8.9 29 -1.7 48 48 E 5 7 30.24 1024 10 16 0.00 0.00
5:52 am 05:52 Cloudy 49 9.4 28 -2.2 44 44 SE 6 9 30.24 1024 10 16 0.00 0.00
6:52 am 06:52 Mostly Cloudy 49 9.4 30 -1.1 48 48 SE 8 13 30.24 1024 10 16 0.00 0.00
7:52 am 07:52 Cloudy 50 10 31 -0.6 48 48 SE 5 7 30.24 1024 10 16 0.00 0.00
8:52 am 08:52 Cloudy 51 10.6 33 0.6 50 50 SE 3 6 30.24 1024 10 16 0.00 0.00
9:52 am 09:52 Cloudy 54 12.2 38 3.3 55 55 S 10 17 30.23 1024 10 16 0.00 0.03
10:47 am 10:47 Cloudy with Rain 52 11 45 7 77 77 SSW 6 9 30.27 1025 3 5 0.02 0.51
10:52 am 10:52 Cloudy with Light Rain 51 10.6 44 6.7 77 77 SSW 5 7 30.25 1025 3 5 0.03 0.76
11:14 am 11:14 Cloudy with Rain 52 11 46 8 82 82 S 5 7 30.30 1026 2 3 0.04 1.02
11:27 am 11:27 Cloudy with Rain 52 11 48 9 88 88 SSE 6 9 30.30 1026 2 3 0.00 0.00
11:52 am 11:52 Cloudy with Heavy Rain 50 10 48 8.9 93 93 S 10 17 30.25 1024 2 3 0.17 4.32
12:05 pm 12:05 Cloudy with Heavy Rain 50 10 48 9 94 94 SSE 10 17 30.27 1025 2 3 0.06 1.52
12:15 pm 12:15 Cloudy with Rain 50 10 48 9 94 94 SSE 9 15 30.27 1025 2 3 0.11 2.79
12:22 pm 12:22 Cloudy with Rain 50 10 48 9 94 94 SSE 9 15 30.27 1025 2 3 0.00 0.00
12:52 pm 12:52 Cloudy with Heavy Rain 50 10 48 8.9 93 93 SE 12 19 30.23 1024 2 3 0.27 6.86
1:19 pm 13:19 Cloudy with Rain 50 10 48 9 94 94 ESE 9 15 30.24 1024 3 5 0.08 2.03
1:44 pm 13:44 Cloudy with Rain 50 10 48 9 94 94 E 8 13 30.24 1024 3 5 0.00 0.00
1:52 pm 13:52 Cloudy with Rain 50 10 48 8.9 93 93 E 7 11 30.22 1023 2 3 0.14 3.56
2:03 pm 14:03 Cloudy with Rain 50 10 48 9 94 94 E 7 11 30.24 1024 2 3 0.00 0.00
2:52 pm 14:52 Cloudy with Rain 50 10 48 8.9 93 93 E 7 11 30.19 1023 3 4 0.22 5.59
3:52 pm 15:52 Cloudy with Light Rain 50 10 48 8.9 93 93 ESE 9 15 30.17 1022 3 4 0.07 1.78
4:52 pm 16:52 Cloudy with Light Rain 51 10.6 49 9.4 92 92 SE 10 17 30.15 1021 3 4 0.08 2.03
5:48 pm 17:48 Cloudy with Light Rain 52 11 48 9 88 88 SE 12 19 30.15 1021 3 4 0.00 0.00
5:52 pm 17:52 Cloudy with Light Rain 51 10.6 49 9.4 92 92 SSE 9 15 30.14 1021 3 5 0.03 0.76
6:43 pm 18:43 Cloudy with Light Rain 52 11 48 9 88 88 SSE 8 13 30.12 1020 2 3 0.01 0.25
6:52 pm 18:52 Cloudy with Light Rain 51 10.6 49 9.4 92 92 SSE 9 15 30.13 1020 2 3 0.01 0.25
7:52 pm 19:52 Cloudy with Rain 50 10 48 8.9 93 93 SSE 8 13 30.12 1020 2 3 0.12 3.05
8:01 pm 20:01 Cloudy with Light Rain 50 10 48 9 94 94 SSE 7 11 30.12 1020 4 6 0.02 0.51
8:52 pm 20:52 Cloudy with Light Rain 50 10 49 9.4 96 96 SSE 6 9 30.11 1020 5 8 0.04 1.02
9:41 pm 21:41 Cloudy with Light Rain 50 10 48 9 94 94 SE 8 13 30.09 1019 6 10 0.02 0.51
9:52 pm 21:52 Cloudy with Light Rain 51 10.6 49 9.4 92 92 SSE 8 13 30.09 1019 3 5 0.03 0.76
10:52 pm 22:52 Cloudy with Light Rain 51 10.6 50 10 96 96 S 7 11 30.07 1018 5 8 0.02 0.51
11:52 pm 23:52 Cloudy with Light Rain 51 10.6 50 10 96 96 S 8 13 30.06 1018 6 10 0.05 1.27

Powered by AerisWeather